| time (UTC) | temp F | wind direction | speed MPH | gust MPH | rain 1hr in | rain 24hr in | rain mn in | humidity % | barometer mb |
| 20260902155004 | 87 | 107 | 7.0 | 10.0 | 0.00 | 0.00 | 0.00 | 63 | 1018.8 |
| 20260902154005 | 88 | 96 | 7.0 | 10.0 | 0.00 | 0.00 | 0.00 | 61 | 1018.9 |
| 20260902153005 | 88 | 103 | 7.0 | 12.0 | 0.00 | 0.00 | 0.00 | 62 | 1018.9 |
| 20260902152005 | 88 | 89 | 9.0 | 14.0 | 0.00 | 0.00 | 0.00 | 60 | 1019.0 |
| 20260902151005 | 88 | 108 | 8.0 | 13.0 | 0.00 | 0.00 | 0.00 | 60 | 1019.0 |
| 20260902145004 | 89 | 86 | 7.0 | 12.0 | 0.00 | 0.00 | 0.00 | 59 | 1019.0 |
| 20260902144006 | 88 | 106 | 8.0 | 13.0 | 0.00 | 0.00 | 0.00 | 62 | 1019.2 |
| 20260902143008 | 89 | 93 | 8.0 | 12.0 | 0.00 | 0.00 | 0.00 | 58 | 1019.2 |
| 20260902135007 | 87 | 118 | 8.0 | 13.0 | 0.00 | 0.00 | 0.00 | 63 | 1019.5 |
| 20260902133006 | 88 | 90 | 8.0 | 13.0 | 0.00 | 0.00 | 0.00 | 61 | 1019.5 |
| 20260902131007 | 87 | 112 | 7.0 | 12.0 | 0.00 | 0.00 | 0.00 | 62 | 1019.6 |
| 20260902130010 | 86 | 109 | 9.0 | 12.0 | 0.00 | 0.00 | 0.00 | 65 | 1019.7 |
| 20260902125005 | 87 | 109 | 7.0 | 12.0 | 0.00 | 0.00 | 0.00 | 62 | 1019.8 |
| 20260902123004 | 88 | 113 | 8.0 | 12.0 | 0.00 | 0.00 | 0.00 | 60 | 1019.9 |
| 20260902122008 | 89 | 106 | 7.0 | 12.0 | 0.00 | 0.00 | 0.00 | 58 | 1019.9 |
| 20260902121005 | 87 | 120 | 9.0 | 13.0 | 0.00 | 0.00 | 0.00 | 61 | 1019.9 |
| 20260902120005 | 88 | 105 | 6.0 | 9.0 | 0.00 | 0.00 | 0.00 | 59 | 1020.0 |
| 20260902115005 | 87 | 120 | 7.0 | 11.0 | 0.00 | 0.00 | 0.00 | 62 | 1020.1 |
| 20260902114007 | 87 | 151 | 6.0 | 10.0 | 0.00 | 0.00 | 0.00 | 61 | 1020.1 |
| 20260902113004 | 88 | 105 | 6.0 | 10.0 | 0.00 | 0.00 | 0.00 | 59 | 1020.2 |
| 20260902112004 | 88 | 123 | 5.0 | 9.0 | 0.00 | 0.00 | 0.00 | 59 | 1020.2 |
| 20260902110007 | 86 | 141 | 5.0 | 8.0 | 0.00 | 0.00 | 0.00 | 62 | 1020.4 |
| 20260902105004 | 87 | 110 | 6.0 | 10.0 | 0.00 | 0.00 | 0.00 | 62 | 1020.4 |
| 20260902104004 | 86 | 143 | 6.0 | 9.0 | 0.00 | 0.00 | 0.00 | 64 | 1020.4 |
| 20260902103005 | 85 | 132 | 8.0 | 11.0 | 0.00 | 0.00 | 0.00 | 67 | 1020.5 |
| 20260902100008 | 84 | 122 | 6.0 | 10.0 | 0.00 | 0.00 | 0.00 | 66 | 1020.5 |
| 20260902095004 | 84 | 132 | 6.0 | 10.0 | 0.00 | 0.00 | 0.00 | 67 | 1020.6 |
| 20260902094005 | 85 | 109 | 7.0 | 11.0 | 0.00 | 0.00 | 0.00 | 65 | 1020.4 |
| 20260902093004 | 85 | 119 | 7.0 | 10.0 | 0.00 | 0.00 | 0.00 | 65 | 1020.4 |
| 20260902092003 | 85 | 103 | 7.0 | 11.0 | 0.00 | 0.00 | 0.00 | 65 | 1020.5 |
| 20260902091005 | 86 | 72 | 3.0 | 5.0 | 0.00 | 0.00 | 0.00 | 61 | 1020.4 |
| 20260902090006 | 85 | 140 | 3.0 | 5.0 | 0.00 | 0.00 | 0.00 | 64 | 1020.2 |
| 20260902083005 | 83 | 171 | 4.0 | 6.0 | 0.00 | 0.00 | 0.00 | 64 | 1019.6 |
| 20260902082006 | 83 | 200 | 2.0 | 4.0 | 0.00 | 0.00 | 0.00 | 63 | 1019.6 |
| 20260902081004 | 83 | 199 | 3.0 | 5.0 | 0.00 | 0.00 | 0.00 | 62 | 1019.7 |
| 20260902080005 | 83 | 237 | 1.0 | 3.0 | 0.00 | 0.00 | 0.00 | 61 | 1019.6 |
| 20260902075004 | 82 | 289 | 1.0 | 2.0 | 0.00 | 0.00 | 0.00 | 63 | 1019.5 |
| 20260902074006 | 81 | 214 | 2.0 | 3.0 | 0.00 | 0.00 | 0.00 | 64 | 1019.5 |
| 20260902073004 | 80 | 265 | 2.0 | 3.0 | 0.00 | 0.00 | 0.00 | 67 | 1019.4 |
| 20260902072004 | 79 | 287 | 2.0 | 4.0 | 0.00 | 0.00 | 0.00 | 69 | 1019.3 |
| 20260902071004 | 78 | 321 | 1.0 | 3.0 | 0.00 | 0.00 | 0.00 | 70 | 1019.1 |
| 20260902070007 | 77 | 294 | 2.0 | 3.0 | 0.00 | 0.00 | 0.00 | 72 | 1019.1 |
| 20260902065005 | 76 | 300 | 3.0 | 6.0 | 0.00 | 0.00 | 0.00 | 74 | 1019.0 |
| 20260902064005 | 76 | 284 | 2.0 | 4.0 | 0.00 | 0.00 | 0.00 | 76 | 1018.9 |
| 20260902063004 | 75 | 292 | 2.0 | 4.0 | 0.00 | 0.00 | 0.00 | 78 | 1018.8 |
| 20260902062005 | 74 | 281 | 3.0 | 5.0 | 0.00 | 0.00 | 0.00 | 80 | 1018.7 |
| 20260902060006 | 74 | 272 | 3.0 | 5.0 | 0.00 | 0.00 | 0.00 | 81 | 1018.5 |
| 20260902055006 | 74 | 267 | 2.0 | 4.0 | 0.00 | 0.00 | 0.00 | 82 | 1018.4 |
| 20260902054004 | 74 | 265 | 2.0 | 3.0 | 0.00 | 0.00 | 0.00 | 82 | 1018.5 |
| 20260902053005 | 74 | 285 | 2.0 | 4.0 | 0.00 | 0.00 | 0.00 | 80 | 1018.3 |
| 20260902052005 | 74 | 272 | 3.0 | 5.0 | 0.00 | 0.00 | 0.00 | 80 | 1018.3 |
| 20260902051004 | 74 | 293 | 4.0 | 7.0 | 0.00 | 0.00 | 0.00 | 80 | 1018.2 |
| 20260902050008 | 74 | 287 | 5.0 | 8.0 | 0.00 | 0.00 | 0.00 | 80 | 1018.2 |
| 20260902045004 | 74 | 291 | 5.0 | 8.0 | 0.00 | 0.00 | 0.00 | 80 | 1018.2 |
| 20260902041007 | 74 | 305 | 4.0 | 7.0 | 0.00 | 0.00 | 0.00 | 81 | 1018.1 |
| 20260902035005 | 74 | 310 | 6.0 | 8.0 | 0.00 | 0.00 | 0.00 | 81 | 1018.3 |
| 20260902034006 | 74 | 299 | 4.0 | 6.0 | 0.00 | 0.00 | 0.00 | 81 | 1018.3 |
| 20260902033008 | 74 | 314 | 5.0 | 8.0 | 0.00 | 0.00 | 0.00 | 82 | 1018.3 |
| 20260902032005 | 74 | 301 | 5.0 | 8.0 | 0.00 | 0.00 | 0.00 | 82 | 1018.4 |
| 20260902031004 | 75 | 307 | 5.0 | 8.0 | 0.00 | 0.00 | 0.00 | 83 | 1018.4 |
| 20260902030005 | 75 | 281 | 5.0 | 7.0 | 0.00 | 0.00 | 0.00 | 83 | 1018.4 |
| 20260902025004 | 75 | 282 | 4.0 | 6.0 | 0.00 | 0.00 | 0.00 | 82 | 1018.4 |
| 20260902024006 | 75 | 303 | 6.0 | 9.0 | 0.00 | 0.00 | 0.00 | 83 | 1018.4 |
| 20260902021007 | 76 | 287 | 3.0 | 4.0 | 0.00 | 0.00 | 0.00 | 84 | 1018.4 |
| 20260902020006 | 76 | 289 | 3.0 | 4.0 | 0.00 | 0.00 | 0.00 | 85 | 1018.4 |
| 20260902015005 | 76 | 263 | 4.0 | 6.0 | 0.00 | 0.00 | 0.00 | 86 | 1018.5 |
| 20260902013005 | 76 | 294 | 3.0 | 4.0 | 0.00 | 0.00 | 0.00 | 85 | 1018.6 |
| 20260902011004 | 76 | 296 | 3.0 | 5.0 | 0.00 | 0.00 | 0.00 | 85 | 1018.7 |
| 20260902010006 | 76 | 277 | 4.0 | 5.0 | 0.00 | 0.00 | 0.00 | 85 | 1018.8 |
| 20260902004036 | 77 | 280 | 3.0 | 5.0 | 0.00 | 0.00 | 0.00 | 84 | 1018.8 |
| 20260902003048 | 77 | 307 | 4.0 | 6.0 | 0.00 | 0.00 | 0.00 | 84 | 1018.9 |
| 20260902002006 | 77 | 288 | 3.0 | 5.0 | 0.00 | 0.00 | 0.00 | 85 | 1018.9 |
| 20260902001005 | 77 | 284 | 2.0 | 3.0 | 0.00 | 0.00 | 0.00 | 86 | 1018.8 |
| 20260902000005 | 78 | 252 | 1.0 | 2.0 | 0.00 | 0.00 | 0.00 | 85 | 1018.9 |
| 20260901235005 | 78 | 273 | 1.0 | 3.0 | 0.00 | 0.00 | 0.00 | 85 | 1018.9 |
| 20260901234005 | 78 | 298 | 1.0 | 2.0 | 0.00 | 0.00 | 0.00 | 85 | 1018.8 |
| 20260901233005 | 78 | 311 | 1.0 | 3.0 | 0.00 | 0.00 | 0.00 | 85 | 1018.8 |
| 20260901232004 | 78 | 324 | 3.0 | 4.0 | 0.00 | 0.00 | 0.00 | 85 | 1018.6 |
| 20260901231005 | 78 | 337 | 1.0 | 3.0 | 0.00 | 0.00 | 0.00 | 84 | 1018.7 |
| 20260901230006 | 78 | 333 | 2.0 | 4.0 | 0.00 | 0.00 | 0.00 | 84 | 1018.8 |
| 20260901224006 | 79 | 324 | 2.0 | 3.0 | 0.00 | 0.00 | 0.00 | 84 | 1018.7 |
| 20260901223008 | 79 | 292 | 2.0 | 3.0 | 0.00 | 0.00 | 0.00 | 84 | 1018.7 |
| 20260901222005 | 78 | 276 | 1.0 | 2.0 | 0.00 | 0.00 | 0.00 | 84 | 1018.8 |
| 20260901215004 | 79 | 258 | 1.0 | 2.0 | 0.00 | 0.00 | 0.00 | 85 | 1018.8 |
| 20260901214005 | 79 | 270 | 1.0 | 2.0 | 0.00 | 0.00 | 0.00 | 85 | 1018.7 |
| 20260901213007 | 79 | 252 | 1.0 | 2.0 | 0.00 | 0.00 | 0.00 | 85 | 1018.7 |
| 20260901212006 | 79 | 230 | 1.0 | 2.0 | 0.00 | 0.00 | 0.00 | 85 | 1018.8 |
| 20260901211005 | 79 | 259 | 1.0 | 1.0 | 0.00 | 0.00 | 0.00 | 84 | 1018.7 |
| 20260901210010 | 79 | 230 | 1.0 | 2.0 | 0.00 | 0.00 | 0.00 | 85 | 1018.7 |
| 20260901205011 | 79 | 229 | 2.0 | 3.0 | 0.00 | 0.00 | 0.00 | 85 | 1018.6 |
| 20260901203019 | 79 | 195 | 2.0 | 3.0 | 0.00 | 0.00 | 0.00 | 83 | 1018.6 |
| 20260901202004 | 79 | 180 | 2.0 | 3.0 | 0.00 | 0.00 | 0.00 | 83 | 1018.3 |
| 20260901201003 | 79 | 109 | 1.0 | 3.0 | 0.00 | 0.00 | 0.00 | 82 | 1018.3 |
| 20260901200006 | 79 | 110 | 1.0 | 3.0 | 0.00 | 0.00 | 0.00 | 82 | 1018.1 |
| 20260901195005 | 79 | 205 | 2.0 | 3.0 | 0.00 | 0.00 | 0.00 | 82 | 1018.0 |
| 20260901194005 | 80 | 221 | 2.0 | 4.0 | 0.00 | 0.00 | 0.00 | 81 | 1017.9 |
| 20260901193006 | 80 | 182 | 3.0 | 4.0 | 0.00 | 0.00 | 0.00 | 80 | 1017.7 |
| 20260901190006 | 81 | 136 | 2.0 | 4.0 | 0.00 | 0.00 | 0.00 | 77 | 1017.3 |
| 20260901185004 | 81 | 145 | 3.0 | 5.0 | 0.00 | 0.00 | 0.00 | 75 | 1017.2 |
| 20260901184006 | 81 | 153 | 2.0 | 4.0 | 0.00 | 0.00 | 0.00 | 74 | 1017.1 |
| 20260901183006 | 82 | 165 | 3.0 | 4.0 | 0.00 | 0.00 | 0.00 | 72 | 1017.1 |
| 20260901182004 | 82 | 135 | 3.0 | 6.0 | 0.00 | 0.00 | 0.00 | 71 | 1017.0 |
| 20260901181021 | 82 | 132 | 4.0 | 6.0 | 0.00 | 0.00 | 0.00 | 70 | 1016.9 |
| 20260901180006 | 82 | 133 | 5.0 | 8.0 | 0.00 | 0.00 | 0.00 | 70 | 1016.9 |
| 20260901174006 | 83 | 137 | 5.0 | 7.0 | 0.00 | 0.00 | 0.00 | 68 | 1017.0 |
| 20260901173005 | 84 | 105 | 4.0 | 7.0 | 0.00 | 0.00 | 0.00 | 67 | 1016.9 |
| 20260901172004 | 84 | 115 | 4.0 | 7.0 | 0.00 | 0.00 | 0.00 | 66 | 1016.9 |
| 20260901171004 | 84 | 109 | 4.0 | 7.0 | 0.00 | 0.00 | 0.00 | 65 | 1016.9 |
| 20260901170006 | 84 | 104 | 4.0 | 8.0 | 0.00 | 0.00 | 0.00 | 62 | 1016.9 |
| 20260901165007 | 85 | 104 | 5.0 | 8.0 | 0.00 | 0.00 | 0.00 | 61 | 1017.0 |
| 20260901164009 | 86 | 100 | 5.0 | 8.0 | 0.00 | 0.00 | 0.00 | 60 | 1017.0 |
| 20260901161005 | 85 | 135 | 5.0 | 8.0 | 0.00 | 0.00 | 0.00 | 59 | 1017.1 |
| 20260901160005 | 85 | 135 | 6.0 | 10.0 | 0.00 | 0.00 | 0.00 | 57 | 1017.3 |